CDT,Max TemperatureF,Mean TemperatureF,Min TemperatureF,Max Dew PointF,MeanDew PointF,Min DewpointF,Max Humidity, Mean Humidity, Min Humidity, Max Sea Level PressureIn, Mean Sea Level PressureIn, Min Sea Level PressureIn, Max VisibilityMiles, Mean VisibilityMiles, Min VisibilityMiles, Max Wind SpeedMPH, Mean Wind SpeedMPH, Max Gust SpeedMPH,PrecipitationIn, CloudCover, Events, WindDirDegrees
2013-7-1,87,72,57,61,52,41,88,54,19,30.22,30.18,30.15,10,9,5,10,2,16,0.00,1,,35
2013-7-2,86,73,60,63,57,46,88,61,25,30.16,30.12,30.05,10,8,2,7,1,,0.00,1,,68
2013-7-3,86,72,59,61,53,46,88,52,25,30.06,30.00,29.92,10,10,5,10,4,17,0.00,0,,146
2013-7-4,91,76,62,59,55,52,82,49,26,29.92,29.84,29.76,10,10,7,16,8,24,0.00,0,,169
2013-7-5,91,81,71,72,61,55,83,52,34,29.80,29.77,29.75,10,10,7,15,8,20,0.00,0,,203
2013-7-6,82,76,71,72,67,64,94,73,58,29.82,29.79,29.75,10,9,2,13,5,17,0.42,1,Rain-Thunderstorm,134
2013-7-7,91,80,69,72,67,61,94,68,38,29.94,29.85,29.79,10,8,3,20,4,23,0.00,0,,6
2013-7-8,89,76,62,70,62,57,94,65,40,30.01,29.96,29.91,10,10,1,9,3,,0.00,0,,94
2013-7-9,84,75,66,68,65,61,94,72,51,30.02,29.89,29.77,10,10,2,21,10,29,0.52,2,Rain-Thunderstorm,290
2013-7-10,80,68,57,63,57,54,94,66,39,30.12,30.07,30.02,10,9,7,9,5,,0.00,0,,314
2013-7-11,86,73,60,64,60,57,88,64,45,30.08,30.00,29.89,10,9,5,18,6,25,0.00,0,,155
2013-7-12,91,81,71,72,66,61,69,59,46,29.90,29.84,29.77,10,10,10,20,11,29,0.00,1,Rain,166
2013-7-13,84,80,75,70,68,66,83,72,62,29.99,29.91,29.83,10,10,7,18,7,23,0.00,4,Rain,132
2013-7-14,75,72,68,70,67,64,94,85,73,30.17,30.08,29.97,10,7,3,15,7,,1.37,6,Rain-Thunderstorm,134
2013-7-15,86,77,68,70,66,63,94,71,45,30.19,30.16,30.11,10,7,0,12,3,16,0.00,2,Fog,168
2013-7-16,89,80,71,70,67,63,88,65,43,30.20,30.15,30.11,10,10,7,15,7,22,0.00,0,,192
2013-7-17,91,82,73,73,68,64,79,64,43,30.22,30.17,30.08,10,10,10,15,7,20,0.00,1,,198
2013-7-18,91,83,75,72,69,66,78,63,46,30.07,29.90,29.75,10,10,10,18,10,28,0.00,0,,206
2013-7-19,82,74,66,72,63,57,83,64,42,29.94,29.88,29.78,10,10,10,17,9,23,0.00,1,,301
2013-7-20,80,70,60,64,61,57,94,75,51,29.99,29.93,29.90,10,10,7,13,3,,0.00,2,Rain,338
2013-7-21,84,74,64,68,64,59,88,71,48,29.92,29.84,29.72,10,10,5,9,6,,0.00,2,Rain,125
2013-7-22,78,69,60,70,62,55,83,69,47,29.93,29.77,29.66,10,10,10,20,9,24,0.15,3,Rain-Thunderstorm,316
2013-7-23,78,66,53,57,55,52,94,68,39,30.04,30.00,29.93,10,10,10,9,5,,0.00,1,,352
2013-7-24,80,68,57,63,57,52,94,65,39,30.07,30.02,29.95,10,10,10,9,3,,0.00,1,,267
2013-7-25,80,70,60,64,62,54,94,74,51,30.01,29.96,29.92,10,9,0,10,5,21,0.00,2,Fog-Rain-Thunderstorm,282
2013-7-26,73,65,57,54,51,45,88,65,40,30.14,30.07,29.98,10,10,10,28,13,34,0.00,4,,332
2013-7-27,71,60,48,50,45,39,93,60,31,30.16,30.09,30.00,10,10,10,20,8,25,0.00,3,,340
2013-7-28,75,60,44,55,47,43,94,64,34,30.06,30.04,30.02,10,10,10,14,4,21,0.00,1,,341
2013-7-29,78,63,48,59,53,46,94,71,36,30.09,30.06,30.04,10,10,10,13,3,20,0.00,2,Rain,145
2013-7-30,78,70,62,63,61,57,94,76,51,30.09,30.07,30.01,10,10,10,8,3,,0.00,6,,285
2013-7-31,80,68,55,63,56,48,94,69,32,30.12,30.08,30.04,10,8,0,15,4,22,0.00,1,Fog-Rain,303